Notices

What's New in latest Release from April 7th, 2021:

- Updated Glossary, including Speed of Maximum Gust, and Total Hourly Precipitation

- Updated national and regional climate services offices contacts and prices information

- Addition of station inventory lists for 1981-2010, 1971-2000, and 1961-1990 Normals.

If you haven't already, please take our survey and provide feedback about our website: https://eccc.sondage-survey.ca/f/LanguageSelection.aspx?s=442ca660-fcf1-47c0-95a9-59707d6fd709

Hourly Data Report for August 09, 2020

TORONTO CITY
ONTARIO
Current Station Operator: ECCC - MSC

43°40'00.000" N
79°24'00.000" W
112.50 m
6158355
71508
XTO

Download Data

Hourly Data (August 2020)
Hourly Data Report for August 9, 2020
TIME
LST
Temp Definition
°C
Dew Point Definition
°C
Rel Hum Definition
%
Precip. Amount Definition
mm

Wind Dir Definition
10's deg

Wind Spd Definition
km/h
Visibility Definition
km
Stn Press Definition
kPa
Hmdx Definition


Wind Chill Definition


Weather Definition


00:00 21.7 15.0 66 0.0       100.57 26   LegendNANA
01:00 21.4 14.0 63 0.0       100.53 25   LegendNANA
02:00 22.4 13.4 57 0.0       100.50 25   LegendNANA
03:00 21.2 13.6 62 0.0       100.45     LegendNANA
04:00 20.8 14.8 68 0.0       100.45 25   LegendNANA
05:00 20.8 15.9 73 0.0       100.45 25   LegendNANA
06:00 21.1 15.9 73 0.0       100.45 26   LegendNANA
07:00 21.5 16.4 73 0.0       100.42 26   LegendNANA
08:00 22.4 16.6 70 0.0       100.47 27   LegendNANA
09:00 24.5 18.0 67 0.0       100.39 31   LegendNANA
10:00 26.7 16.8 55 0.0       100.36 32   LegendNANA
11:00 26.2 17.2 58 0.0       100.37 32   LegendNANA
12:00 26.1 17.9 61 0.0       100.34 32   LegendNANA
13:00 27.9 18.0 55 0.0       100.29 34   LegendNANA
14:00 27.6 17.8 55 0.0       100.22 33   LegendNANA
15:00 26.2 16.9 57 0.0       100.23 31   LegendNANA
16:00 26.4 17.8 59 0.0       100.20 32   LegendNANA
17:00 26.6 18.2 60 0.0       100.18 33   LegendNANA
18:00 25.9 18.1 62 0.0       100.17 32   LegendNANA
19:00 26.2 19.1 65 0.0       100.18 33   LegendNANA
20:00 25.9 19.3 67 0.0       100.22 33   LegendNANA
21:00 25.7 20.3 72 0.0       100.28 34   LegendNANA
22:00 26.1 20.1 69 0.0       100.26 34   LegendNANA
23:00 25.3 19.8 72 0.0       100.23 33   LegendNANA

Notes on Data Quality.

Legend

  • E = Estimated
  • M = Missing
  • NA = Not Available*
  • [empty] = Indicates an unobserved value
Date modified: